Regional Weather Roundup
Issued by NWS

Home | Current Version | Previous Version | Text Only | Print | Product List | Glossary Off
Versions: 1 2 3 4 5 6 7 8 9 10 11 12 13 14 15 16 17 18 19 20 21 22 23 24 25 26 27 28 29 30 31 32 33 34 35 36 37 38 39 40 41 42 43 44 45 46 47 48 49 50

000
ASUS43 KLOT 172300
RWRIL

ILLINOIS REGIONAL WEATHER ROUNDUP
NATIONAL WEATHER SERVICE CHICAGO/ROMEOVILLE IL
500 PM CST WED DEC 17 2014

NOTE: "FAIR" INDICATES FEW OR NO CLOUDS BELOW 12,000 FEET WITH NO
SIGNIFICANT WEATHER AND/OR OBSTRUCTIONS TO VISIBILITY.

* THESE STATIONS ARE NOT UNDER NWS QUALITY CONTROL. THEY ALSO MAY NOT
  REPORT WEATHER SUCH AS PRECIPITATION OR FOG.

ILZ001-002-007-009-015-016-024-180000-
NORTHWEST ILLINOIS

CITY           SKY/WX    TMP DP  RH WIND       PRES   REMARKS
MOLINE         CLEAR     25  15  66 NW9       30.28S WCI  15
STERLING*      MOCLDY    25  14  63 NW7       30.27F WCI  17
$$

ILZ003-004-008-010-011-017-018-180000-
NORTH CENTRAL ILLINOIS

CITY           SKY/WX    TMP DP  RH WIND       PRES   REMARKS
ROCKFORD       CLOUDY    24  16  71 NW8       30.28R WCI  15
$$

ILZ005-006-012>014-019>023-180000-
NORTHEAST ILLINOIS

CITY           SKY/WX    TMP DP  RH WIND       PRES   REMARKS
CHICAGO-OHARE  CLOUDY    25  16  68 NW9       30.24R WCI  15
CHICAGO-MIDWAY CLOUDY    28  17  63 W8        30.25S WCI  20
AURORA         CLOUDY    25  16  68 W12       30.26R WCI  14
WAUKEGAN       MOCLDY    24  15  68 W6        30.23R WCI  17
DUPAGE AIRPORT CLOUDY    25  17  72 W7        30.24R WCI  17
WHEELING       CLOUDY    26  16  65 NW10      30.26R WCI  16
NORTHERLY ISL    N/A     27  17  66 W9          N/A  WCI  18
$$

LMZ740>746-180000-
SOUTHERN LAKE MICHIGAN

STATION/POSITION SKY/WX   TEMP    WIND        PRES    VSBY  WAVE
                          AIR SEA DIR/SP/G                  HT/PER
                          (F)     (DEG/KT/KT) (MB)    (MI)  (FT/S)
WAUKEGAN HARBOR            25     320/  6/ 14   N/A
HARRISON CRIB              25     310/ 12/ 14   N/A
BURNHAM HARBOR             27     300/  5/ 13   N/A
CALUMET HARBOR             27     250/  6/ 10 1023.0R
$$

ILZ025>027-034>036-040-047-049-050-058-095>099-180000-
WEST-CENTRAL ILLINOIS

CITY           SKY/WX    TMP DP  RH WIND       PRES   REMARKS
QUINCY         CLEAR     25  18  74 N3        30.30S
$$

ILZ028>032-037-038-041>044-048-051>054-059>061-180000-
CENTRAL ILLINOIS

CITY           SKY/WX    TMP DP  RH WIND       PRES   REMARKS
DECATUR        CLOUDY    24  19  81 W6        30.30R WCI  17
PEORIA         PTCLDY    28  18  66 CALM      30.29R
SPRINGFIELD    CLEAR     24  18  77 W6        30.31R WCI  17
TAYLORVILLE    NOT AVBL
$$

ILZ033-039-045-046-055>057-062-063-180000-
EAST-CENTRAL ILLINOIS

CITY           SKY/WX    TMP DP  RH WIND       PRES   REMARKS
CHAMPAIGN      CLOUDY    24  18  77 W7        30.28R WCI  16
MATTOON        CLOUDY    24  19  81 NW9       30.29R WCI  14
$$

ILZ079-100>102-180000-
SOUTHWEST ILLINOIS

CITY           SKY/WX    TMP DP  RH WIND       PRES   REMARKS
ALTON          PTCLDY    32  25  74 N7        30.29F WCI  26
BELLEVILLE     MOCLDY    36  26  68 N6        30.28F WCI  31
CAHOKIA*       MOCLDY    37  26  64 N7        30.29S WCI  32
$$

ILZ064>066-069>071-074>076-080>082-084>086-088>090-092>094-180000-
SOUTH-CENTRAL ILLINOIS

CITY           SKY/WX    TMP DP  RH WIND       PRES   REMARKS
CARBONDALE     CLOUDY    37  26  64 CALM      30.29F
MARION         PTCLDY    37  27  65 N6        30.31R WCI  33
MT. VERNON     MOCLDY    34  21  60 N3        30.30S
$$

ILZ067-068-072-073-078-083-087-091-180000-
SOUTHEAST ILLINOIS

CITY           SKY/WX    TMP DP  RH WIND       PRES   REMARKS
LAWRENCEVILLE  CLOUDY    30  23  75 N9        30.30S WCI  22
$$

ABBREVIATIONS USED IN REMARKS
   TC - TEMPERATURE IN CELSIUS
  WCI - WIND CHILL INDEX
   HX - HEAT INDEX
  VSB - VISIBILITY
$$



USA.gov is the U.S. government's official web portal to all federal, state and local government web resources and services.